Wind_Speed
10 7 7 6 12 10 13 16 14 15 11 7 8 14 10 4 7 10 11 13 14 15 15 14 15 15 16 16 16 17 16 16 16 15 14 13 12 12 13 14 14 14 14
14 9 7 9 13 9 10 12 14 12 8 10 7 10 9 4 7 15 14 14 14 14 13 13 15 16 16 16 17 17 18 18 18 17 16 14 13 13 14 15 15 16 15
13 13 4 8 7 9 7 5 2 4 7 11 10 5 8 9 7 7 9 13 13 12 12 12 14 14 15 15 16 17 18 20 20 18 17 16 14 13 14 15 16 16 16
11 7 10 9 6 4 2 3 2 6 7 5 9 8 5 8 8 4 5 3 5 10 10 12 12 12 13 15 15 16 18 21 22 20 18 17 16 16 17 18 19 20 18
13 13 10 5 7 1 3 5 7 10 10 4 6 5 2 5 9 4 2 3 3 5 6 6 6 6 9 11 13 16 18 20 21 20 19 17 17 18 20 21 22 21 19
9 16 7 7 9 5 5 6 6 6 7 9 6 8 3 3 2 7 6 4 3 3 6 6 4 3 4 7 8 13 16 20 23 21 19 17 18 20 22 22 21 20 17
10 7 8 10 8 7 10 6 5 6 9 4 8 8 6 3 2 1 4 2 3 4 5 3 6 8 4 4 4 9 15 22 27 22 20 19 18 21 23 21 21 21 19
7 6 7 7 17 9 13 9 5 7 2 3 5 4 3 6 8 2 4 5 2 6 5 4 8 8 7 7 6 8 14 22 28 24 22 19 18 20 22 21 23 22 19
11 3 5 7 11 10 7 7 3 3 5 4 3 4 1 1 5 5 6 6 8 4 7 10 13 9 7 6 5 11 15 24 27 27 22 20 17 19 21 21 23 24 23
7 3 5 2 5 8 7 5 2 1 1 2 7 3 8 12 4 4 2 5 3 7 7 3 10 12 10 8 11 15 17 25 27 20 22 21 20 20 20 22 24 26 24
7 5 4 4 6 10 8 8 1 3 2 3 6 3 1 3 4 10 2 6 2 9 11 4 3 6 8 6 6 16 23 31 20 18 21 25 24 23 23 24 25 26 21
10 10 6 5 10 10 11 5 3 5 3 8 5 9 11 5 4 9 6 17 13 15 4 10 5 3 9 5 13 22 29 26 11 16 20 25 25 25 25 24 25 25 20
12 10 11 7 6 9 8 8 6 5 3 0 3 7 8 14 6 6 4 0 13 7 10 8 5 12 6 11 20 24 25 13 13 17 17 22 24 25 26 25 27 24 22
10 13 9 6 6 9 8 7 6 8 6 4 3 2 2 5 7 9 4 4 2 3 6 12 9 7 8 17 22 18 19 12 16 17 19 19 23 24 25 26 28 26 25
16 16 13 7 8 8 5 8 5 9 7 4 9 6 3 2 2 6 9 13 8 7 7 11 5 12 14 10 14 14 16 14 15 21 20 19 22 20 23 24 24 24 28
11 13 11 7 7 11 10 9 7 8 8 7 7 5 7 9 8 7 5 1 4 6 7 9 11 11 11 12 7 17 15 15 19 22 19 22 22 16 22 23 23 22 23
13 12 13 9 10 8 10 10 10 10 8 8 5 9 4 9 11 3 11 9 7 7 8 11 5 9 9 14 13 13 14 14 16 15 17 19 17 20 21 18 24 19 20
9 15 13 12 12 9 11 11 9 8 8 6 4 7 4 3 7 5 5 5 7 6 6 8 9 6 15 13 13 5 9 11 12 15 19 21 21 23 19 17 17 15 16
8 11 13 12 13 11 11 11 10 10 11 8 7 7 3 4 5 8 10 8 11 8 9 9 11 10 11 9 16 14 15 15 16 18 20 19 17 15 20 18 18 15 17
11 10 12 12 9 10 13 12 10 10 8 5 5 5 5 6 8 9 7 9 9 8 8 10 11 12 14 17 19 20 18 17 19 21 19 12 11 15 16 16 18 16 20
14 14 14 13 11 13 14 10 7 7 11 10 6 4 9 9 8 9 9 10 9 9 10 10 11 13 14 17 19 20 22 23 21 19 17 12 14 17 15 16 19 16 13
17 16 16 17 15 16 9 8 7 13 10 15 10 10 12 9 9 8 6 6 8 10 9 10 11 13 13 14 18 18 18 21 23 20 20 17 16 17 17 20 17 13 11
24 22 21 19 16 11 5 4 5 6 6 4 5 10 14 12 10 8 9 10 9 10 10 10 12 13 15 10 11 12 13 15 16 17 20 20 19 18 17 16 13 16 17
25 24 22 15 7 9 9 7 6 10 9 10 12 14 13 11 10 10 9 7 7 8 9 9 9 8 6 7 10 11 13 12 9 17 20 22 21 19 15 9 9 15 13
21 17 16 16 10 8 7 7 10 8 9 10 12 10 8 7 7 6 5 3 2 3 5 6 5 10 7 6 7 8 11 16 18 16 17 19 21 22 16 12 10 16 16
11 16 14 10 3 2 2 9 11 10 8 9 8 4 3 3 2 3 2 1 1 1 6 5 10 8 5 2 7 11 12 15 17 17 20 22 19 21 20 10 23 24 22
Wind_Direction
124 138 177 119 136 99 98 126 110 93 76 83 99 121 104 134 50 77 97 104 106 105 102 99 94 87 81 73 65 57 49 42 34 28 19 12 7 2 2 357 353 349 347
147 160 129 77 87 105 107 116 125 130 111 138 123 110 142 121 103 71 91 100 101 98 96 96 92 85 77 68 58 49 41 35 29 25 21 16 9 3 2 356 353 346 339
150 147 171 104 63 82 124 127 90 215 115 122 129 112 109 165 124 109 76 80 82 89 91 93 89 80 70 60 50 41 33 28 24 20 16 13 7 3 357 354 351 344 335
146 124 139 136 149 157 351 292 52 166 180 103 126 126 50 144 134 107 119 106 76 73 86 88 76 69 61 51 40 32 26 20 14 12 11 14 16 15 6 356 349 342 336
150 163 138 144 190 77 51 42 79 89 192 143 136 131 153 97 133 116 194 147 96 115 92 70 45 45 46 38 30 26 19 13 9 4 2 6 9 4 359 351 348 342 339
148 129 154 185 175 116 134 87 109 79 57 165 206 179 130 64 83 92 133 128 57 82 70 71 23 6 31 10 3 15 13 8 3 2 1 357 359 359 356 356 360 360 353
151 141 166 156 150 128 133 96 130 77 126 62 131 168 182 216 159 111 232 102 147 290 36 16 16 26 34 36 350 360 5 6 360 358 4 1 359 358 356 3 4 6 9
158 168 156 149 171 137 129 136 149 57 55 331 149 174 211 221 214 169 292 271 307 273 307 326 335 27 31 33 334 342 357 353 356 358 0 356 351 353 355 2 6 4 357
182 187 191 139 154 143 119 134 79 75 76 66 91 83 255 269 235 194 209 236 281 265 300 311 316 314 4 360 337 331 349 347 355 356 1 3 2 358 358 2 4 3 359
178 211 249 167 148 148 153 145 113 286 82 170 130 253 132 33 61 25 216 200 257 265 298 314 288 267 319 337 343 341 348 346 352 6 15 17 11 7 7 3 1 3 3
167 226 230 207 179 167 190 165 308 248 96 119 96 98 122 127 66 29 3 182 219 317 271 339 83 149 354 324 9 357 346 344 356 18 21 20 16 12 9 4 3 8 10
185 194 215 225 180 202 189 182 212 251 21 160 107 69 55 165 156 46 72 237 299 332 296 2 3 347 350 343 343 335 344 345 6 18 19 17 16 15 11 10 7 11 13
191 184 198 204 211 188 204 204 214 194 237 107 354 64 56 68 28 22 28 289 240 298 3 355 318 342 354 12 358 355 348 2 15 7 7 13 17 15 16 16 11 16 17
209 205 219 223 217 204 197 216 216 183 191 229 226 301 8 61 47 26 86 5 4 346 332 22 34 42 9 360 360 8 9 27 10 5 8 9 12 18 17 15 15 21 18
218 202 208 212 192 189 223 233 224 206 202 249 257 248 240 316 300 14 47 36 18 0 11 14 21 343 337 346 4 15 9 8 10 1 1 9 1 7 11 6 8 15 21
199 203 199 167 170 182 207 239 227 206 211 246 266 264 264 279 271 256 285 300 2 319 319 330 337 345 345 324 330 328 348 355 6 9 3 3 354 4 3 357 354 351 6
212 237 205 185 203 196 203 215 236 221 245 237 239 237 265 277 296 262 263 280 299 310 319 312 335 341 331 339 315 321 343 357 6 3 349 353 2 354 348 351 344 340 357
221 206 210 190 224 216 211 220 233 224 235 228 229 244 255 259 286 302 286 261 260 273 310 301 313 334 354 347 11 7 343 340 340 334 336 330 330 329 335 328 344 354 4
246 235 221 208 208 217 227 230 235 222 244 259 254 221 249 262 286 294 308 277 268 277 288 303 296 322 356 322 331 327 330 325 326 328 333 337 334 344 338 336 359 27 14
233 242 214 217 222 220 221 224 220 213 220 216 220 242 259 259 254 265 283 302 302 293 300 306 302 313 318 318 327 331 329 336 336 338 341 351 1 5 14 29 35 20 6
249 242 230 223 221 223 227 232 230 220 215 207 232 312 255 253 264 271 284 300 310 307 314 312 312 315 325 334 338 338 331 330 339 353 348 6 357 11 7 7 3 8 13
236 237 226 223 225 233 233 225 235 220 240 236 236 271 273 277 266 265 291 300 293 299 306 316 324 324 338 339 324 332 344 350 2 354 353 359 352 346 351 359 8 6 0
216 213 217 217 218 233 218 217 219 220 232 224 197 230 263 275 273 279 283 290 293 293 299 311 328 333 325 335 346 350 349 356 2 357 351 345 335 338 343 355 0 7 9
248 222 218 209 219 235 242 234 212 211 217 219 233 244 249 257 266 272 278 284 292 294 302 329 344 16 8 342 340 342 343 343 331 347 343 346 342 342 359 15 3 350 351
205 188 203 210 213 211 208 193 191 200 211 219 225 233 238 250 254 262 274 301 10 61 90 92 62 61 34 4 354 335 333 337 338 1 350 346 347 339 345 343 339 340 336
143 146 142 149 161 109 116 168 179 191 180 177 185 191 223 250 249 275 277 270 324 108 137 143 127 110 96 351 349 349 347 348 347 355 346 342 345 353 338 334 324 334 335
Height
1596 1599 1597 1598 1599 1599 1600 1600 1598 1598 1598 1601 1601 1602 1599 1601 1601 1599 1598 1598 1598 1598 1598 1598 1598 1598 1597 1596 1595 1595 1594 1593 1591 1589 1587 1586 1584 1581 1580 1578 1574 1573 1570
1599 1600 1600 1600 1600 1600 1601 1602 1603 1603 1603 1603 1603 1602 1602 1601 1602 1602 1601 1601 1601 1602 1602 1601 1600 1600 1599 1598 1597 1596 1595 1594 1592 1590 1587 1585 1583 1581 1579 1576 1574 1571 1568
1601 1603 1603 1600 1601 1602 1602 1603 1604 1604 1604 1604 1604 1603 1604 1604 1603 1604 1604 1604 1604 1604 1604 1604 1603 1602 1600 1599 1598 1597 1596 1595 1593 1590 1587 1585 1582 1580 1578 1575 1573 1569 1566
1602 1602 1602 1602 1602 1602 1600 1600 1603 1604 1604 1604 1605 1605 1605 1605 1606 1605 1605 1606 1606 1606 1606 1606 1606 1604 1602 1601 1600 1598 1597 1595 1593 1590 1588 1585 1582 1579 1576 1573 1570 1567 1563
1601 1600 1600 1600 1601 1602 1601 1601 1603 1604 1605 1606 1607 1607 1607 1608 1608 1608 1607 1608 1608 1607 1607 1607 1607 1606 1604 1602 1601 1599 1597 1595 1593 1590 1587 1584 1581 1578 1574 1571 1568 1563 1559
1599 1599 1599 1599 1601 1601 1602 1603 1605 1604 1604 1607 1607 1608 1608 1609 1609 1609 1611 1609 1607 1608 1607 1607 1607 1605 1605 1604 1602 1600 1598 1595 1592 1589 1587 1584 1581 1577 1572 1569 1565 1561 1557
1599 1598 1598 1600 1602 1602 1602 1602 1604 1605 1605 1607 1607 1609 1609 1610 1609 1610 1612 1611 1611 1609 1608 1608 1607 1606 1605 1605 1603 1601 1599 1595 1592 1588 1585 1583 1580 1576 1571 1567 1564 1560 1556
1599 1598 1599 1602 1602 1602 1602 1603 1605 1606 1606 1607 1609 1610 1610 1611 1611 1612 1613 1612 1614 1613 1612 1611 1609 1608 1606 1604 1603 1601 1599 1596 1592 1588 1584 1581 1578 1575 1571 1567 1563 1559 1555
1599 1600 1601 1603 1604 1603 1603 1603 1606 1608 1608 1607 1610 1612 1612 1611 1612 1612 1613 1613 1616 1615 1613 1612 1611 1610 1608 1605 1604 1602 1600 1596 1591 1587 1582 1579 1576 1574 1571 1566 1562 1558 1553
1599 1601 1602 1604 1603 1604 1605 1606 1608 1607 1608 1609 1609 1610 1611 1612 1610 1610 1613 1615 1614 1613 1611 1610 1607 1608 1609 1607 1604 1602 1600 1595 1591 1587 1582 1578 1576 1573 1570 1565 1561 1557 1552
1599 1600 1601 1603 1604 1604 1607 1608 1608 1609 1612 1613 1611 1611 1611 1611 1610 1610 1609 1610 1611 1610 1611 1608 1604 1607 1608 1608 1604 1601 1600 1595 1591 1587 1583 1579 1576 1573 1569 1565 1560 1556 1552
1598 1599 1600 1601 1604 1607 1609 1609 1610 1610 1612 1612 1614 1613 1612 1610 1611 1610 1608 1607 1612 1612 1610 1605 1601 1603 1605 1607 1603 1601 1598 1593 1591 1588 1584 1580 1576 1573 1569 1565 1560 1556 1552
1597 1599 1600 1602 1603 1606 1607 1609 1610 1612 1613 1615 1615 1614 1614 1613 1612 1611 1612 1607 1611 1614 1611 1606 1604 1603 1604 1604 1600 1598 1596 1592 1591 1587 1584 1580 1577 1574 1570 1566 1561 1556 1553
1595 1597 1599 1601 1601 1604 1607 1608 1610 1612 1613 1614 1614 1617 1616 1614 1616 1614 1615 1614 1612 1610 1610 1606 1605 1604 1605 1603 1601 1599 1596 1593 1591 1587 1584 1580 1577 1574 1571 1567 1563 1559 1555
1592 1593 1596 1598 1600 1601 1604 1607 1609 1611 1612 1612 1613 1613 1614 1614 1616 1615 1614 1611 1610 1609 1609 1608 1607 1606 1604 1603 1601 1599 1596 1594 1591 1586 1583 1580 1577 1575 1571 1568 1565 1561 1557
1591 1593 1593 1594 1597 1600 1602 1604 1606 1607 1609 1611 1612 1612 1612 1613 1614 1614 1612 1612 1611 1608 1607 1607 1605 1604 1603 1601 1599 1597 1595 1593 1589 1585 1582 1579 1576 1574 1571 1568 1565 1561 1558
1591 1592 1593 1593 1595 1597 1599 1600 1603 1605 1607 1608 1610 1611 1612 1612 1612 1611 1610 1608 1607 1605 1606 1606 1604 1601 1598 1594 1594 1594 1593 1591 1587 1583 1581 1577 1574 1572 1569 1567 1563 1560 1558
1589 1591 1592 1591 1593 1594 1595 1598 1600 1603 1605 1607 1609 1608 1609 1609 1609 1608 1607 1606 1606 1607 1606 1602 1599 1596 1595 1592 1593 1592 1591 1587 1584 1581 1579 1576 1572 1569 1565 1562 1560 1557 1556
1588 1588 1588 1590 1591 1592 1593 1596 1598 1599 1602 1604 1607 1608 1607 1607 1607 1606 1606 1606 1605 1605 1602 1599 1596 1595 1593 1591 1590 1589 1587 1584 1581 1579 1577 1573 1570 1567 1565 1562 1559 1557 1556
1585 1587 1588 1589 1590 1591 1591 1592 1594 1596 1599 1602 1603 1605 1605 1604 1605 1603 1603 1603 1602 1600 1599 1596 1594 1593 1591 1589 1587 1584 1581 1580 1578 1576 1573 1569 1569 1567 1565 1561 1558 1557 1556
1582 1584 1586 1587 1586 1588 1589 1589 1591 1593 1595 1598 1600 1601 1601 1600 1601 1601 1600 1599 1598 1597 1595 1594 1593 1591 1589 1587 1584 1582 1580 1577 1575 1571 1569 1568 1567 1565 1563 1561 1559 1557 1554
1580 1583 1583 1584 1584 1583 1587 1587 1588 1591 1593 1593 1593 1596 1598 1596 1597 1597 1597 1596 1595 1595 1594 1593 1591 1589 1588 1586 1582 1580 1577 1573 1571 1571 1568 1568 1565 1564 1563 1561 1558 1556 1555
1575 1573 1578 1580 1580 1581 1583 1583 1585 1587 1589 1591 1591 1594 1595 1595 1595 1595 1595 1594 1594 1593 1591 1590 1589 1587 1584 1582 1580 1578 1575 1574 1573 1571 1569 1567 1565 1562 1561 1560 1557 1556 1553
1565 1569 1571 1575 1576 1577 1579 1580 1582 1583 1587 1590 1592 1594 1593 1592 1592 1592 1592 1591 1591 1590 1589 1588 1587 1586 1584 1581 1578 1576 1574 1573 1573 1572 1568 1565 1562 1560 1559 1557 1555 1553 1550
1563 1565 1568 1570 1574 1574 1576 1577 1578 1582 1584 1586 1588 1588 1589 1589 1589 1589 1589 1589 1589 1589 1588 1587 1586 1585 1583 1580 1578 1575 1572 1570 1569 1570 1568 1564 1561 1556 1555 1554 1553 1551 1549
1559 1561 1564 1569 1572 1572 1575 1576 1576 1579 1581 1583 1585 1586 1587 1587 1587 1587 1587 1587 1587 1587 1587 1586 1584 1582 1579 1578 1577 1573 1571 1570 1569 1568 1566 1563 1559 1556 1551 1551 1549 1546 1544